Location: Unspecified
(0.0000°N, 0.0000°E)
Time: 09:15:40
(UTC+00:00)

Interbol-2 - Pass Details

Date: 16 October 2024
Orbit: 757 x 19215 km, 62.8° (Epoch: 02 November)

Event Time Altitude Azimuth Distance (km) Brightness Sun altitude
Rises 20:47:11 0° 148° (SSE) 6,007 9.9 -44.7°
Enters shadow 20:47:59 - 145° (SE) 6,030 9.9 -44.9°
Exits shadow 21:32:57 15° 60° (ENE) 14,476 11.5 -55.7°
Drops below altitude 10° 22:00:58 10° 45° (NE) 18,976 12.2 -62.4°
Sets 22:53:50 0° 32° (NNE) 24,148 12.9 -74.1°
